Weather History for York, NE

Change the Weather History Date:

Monday, May 13, 2013

  Actual Average Record
Temperature  
Mean Temperature 66 °F -  
Max Temperature 87 °F 72 °F 91 °F (1991)
Min Temperature 46 °F 48 °F 29 °F (1966)
Cooling Degree Days 2    
Growing Degree Days 16 (Base 50)    
Moisture  
Dew Point 45 °F    
Average Humidity 53    
Maximum Humidity 82    
Minimum Humidity 19    
Precipitation  
Precipitation 0.00 in - - ()
Sea Level Pressure  
Sea Level Pressure 29.99 in    
Wind  
Wind Speed 11 mph (SSW)    
Max Wind Speed 22 mph    
Max Gust Speed 30 mph    
Visibility 10 miles    
Events      
Averages and records for this station are not official NWS values.
T = Trace of Precipitation, MM = Missing Value Source: NWS Daily Summary

Daily Weather History Graph

Daily Weather History Graph

Search for Another Location

Airport:

Trip Planner

Search our weather history database for the weather conditions in past years. The results will help you decide how hot, cold, wet, or windy it might be!

Date:

Astronomy

May. 13, 2013 Rise Set
Actual Time 6:14 AM CDT 8:39 PM CDT
Civil Twilight 5:43 AM CDT 9:10 PM CDT
Nautical Twilight 5:05 AM CDT 9:49 PM CDT
Astronomical Twilight 4:22 AM CDT 10:32 PM CDT
Moon 9:01 AM CDT (5/13) 11:49 PM CDT (5/13)
Length of Visible Light 15h 27m
Length of Day
14h 24m
Waxing Crescent, 12% of the Moon is Illuminated
May 13
Waxing Crescent
May 17
First Quarter
May 24
Full
May 31
Last Quarter
Jun 8
New

Hourly Weather History & Observations

Time (CDT) Temp. Windchill Dew Point Humidity Pressure Visibility Wind Dir Wind Speed Gust Speed Precip Events Conditions
12:15 AM 50.0 °F - 39.2 °F 66% 30.10 in 10.0 mi South 8.1 mph - N/A   Clear
12:35 AM 50.0 °F - 39.2 °F 66% 30.10 in 10.0 mi South 9.2 mph - N/A   Clear
12:55 AM 50.0 °F - 41.0 °F 71% 30.10 in 10.0 mi South 9.2 mph - N/A   Clear
1:15 AM 50.0 °F - 41.0 °F 71% 30.09 in 10.0 mi South 9.2 mph - N/A   Clear
1:35 AM 50.0 °F - 41.0 °F 71% 30.09 in 10.0 mi South 8.1 mph - N/A   Clear
1:55 AM 50.0 °F - 41.0 °F 71% 30.09 in 10.0 mi South 8.1 mph - N/A   Clear
2:15 AM 50.0 °F - 41.0 °F 71% 30.09 in 10.0 mi South 8.1 mph - N/A   Clear
2:35 AM 50.0 °F - 41.0 °F 71% 30.09 in 10.0 mi South 8.1 mph - N/A   Clear
2:55 AM 50.0 °F - 41.0 °F 71% 30.08 in 10.0 mi South 10.4 mph - N/A   Clear
3:15 AM 50.0 °F - 41.0 °F 71% 30.08 in 10.0 mi South 6.9 mph - N/A   Clear
3:35 AM 50.0 °F - 41.0 °F 71% 30.08 in 10.0 mi South 8.1 mph - N/A   Clear
3:55 AM 48.2 °F - 41.0 °F 76% 30.08 in 10.0 mi South 5.8 mph - N/A   Clear
4:15 AM 48.2 °F - 41.0 °F 76% 30.07 in 10.0 mi South 9.2 mph - N/A   Clear
4:35 AM 48.2 °F - 41.0 °F 76% 30.06 in 10.0 mi South 8.1 mph - N/A   Clear
4:55 AM 48.2 °F - 41.0 °F 76% 30.06 in 10.0 mi South 9.2 mph - N/A   Clear
5:15 AM 48.2 °F - 41.0 °F 76% 30.05 in 10.0 mi South 10.4 mph - N/A   Clear
5:35 AM 48.2 °F - 41.0 °F 76% 30.04 in 10.0 mi South 11.5 mph - N/A   Clear
5:55 AM 46.4 °F 41.5 °F 41.0 °F 81% 30.04 in 10.0 mi South 10.4 mph - N/A   Clear
6:15 AM 48.2 °F - 41.0 °F 76% 30.04 in 10.0 mi South 11.5 mph - N/A   Clear
6:35 AM 48.2 °F - 41.0 °F 76% 30.05 in 10.0 mi South 8.1 mph - N/A   Clear
6:55 AM 48.2 °F - 41.0 °F 76% 30.06 in 10.0 mi South 10.4 mph - N/A   Clear
7:15 AM 48.2 °F - 42.8 °F 82% 30.05 in 10.0 mi South 11.5 mph - N/A   Clear
7:35 AM 50.0 °F - 42.8 °F 76% 30.06 in 10.0 mi South 13.8 mph - N/A   Clear
7:55 AM 51.8 °F - 42.8 °F 71% 30.06 in 10.0 mi South 12.7 mph - N/A   Clear
8:15 AM 53.6 °F - 42.8 °F 67% 30.06 in 10.0 mi South 12.7 mph - N/A   Clear
8:35 AM 53.6 °F - 44.6 °F 72% 30.06 in 10.0 mi South 11.5 mph - N/A   Clear
8:55 AM 55.4 °F - 44.6 °F 67% 30.06 in 10.0 mi South 15.0 mph - N/A   Clear
9:15 AM 57.2 °F - 44.6 °F 63% 30.05 in 10.0 mi South 12.7 mph - N/A   Clear
9:35 AM 59.0 °F - 44.6 °F 59% 30.04 in 10.0 mi South 13.8 mph - N/A   Clear
9:55 AM 60.8 °F - 46.4 °F 59% 30.04 in 10.0 mi South 13.8 mph - N/A   Clear
10:15 AM 64.4 °F - 46.4 °F 52% 30.03 in 10.0 mi South 11.5 mph - N/A   Clear
10:35 AM 66.2 °F - 46.4 °F 49% 30.03 in 10.0 mi South 12.7 mph - N/A   Clear
10:55 AM 68.0 °F - 46.4 °F 46% 30.03 in 10.0 mi South 12.7 mph - N/A   Clear
11:15 AM 71.6 °F - 46.4 °F 41% 30.02 in 10.0 mi South 15.0 mph - N/A   Clear
11:35 AM 73.4 °F - 46.4 °F 38% 30.02 in 10.0 mi South 16.1 mph - N/A   Clear
11:55 AM 75.2 °F - 46.4 °F 36% 30.01 in 10.0 mi South 16.1 mph - N/A   Clear
12:15 PM 77.0 °F - 44.6 °F 32% 30.01 in 9.0 mi South 18.4 mph 21.9 mph N/A   Clear
12:35 PM 78.8 °F - 42.8 °F 28% 30.00 in 10.0 mi SSW 17.3 mph 23.0 mph N/A   Clear
12:55 PM 80.6 °F - 39.2 °F 23% 29.99 in 10.0 mi South 17.3 mph 23.0 mph N/A   Clear
1:15 PM 82.4 °F - 39.2 °F 21% 29.98 in 10.0 mi South 18.4 mph 26.5 mph N/A   Clear
1:35 PM 82.4 °F - 37.4 °F 20% 29.97 in 10.0 mi SSW 19.6 mph 24.2 mph N/A   Clear
1:55 PM 84.2 °F - 37.4 °F 19% 29.96 in 10.0 mi SSW 20.7 mph 25.3 mph N/A   Partly Cloudy
2:15 PM 84.2 °F - 39.2 °F 20% 29.96 in 10.0 mi SSW 20.7 mph 28.8 mph N/A   Partly Cloudy
2:35 PM 84.2 °F - 39.2 °F 20% 29.95 in 10.0 mi SSW 18.4 mph 26.5 mph N/A   Clear
3:35 PM 86.0 °F - 41.0 °F 20% 29.93 in 10.0 mi SSW 21.9 mph 29.9 mph N/A   Clear
3:55 PM 86.0 °F - 41.0 °F 20% 29.92 in 10.0 mi SW 21.9 mph 28.8 mph N/A   Clear
4:15 PM 87.8 °F - 41.0 °F 19% 29.92 in 10.0 mi SW 19.6 mph 25.3 mph N/A   Clear
4:35 PM 87.8 °F - 42.8 °F 21% 29.91 in 10.0 mi SSW 20.7 mph 27.6 mph N/A   Clear
4:55 PM 87.8 °F - 44.6 °F 22% 29.90 in 10.0 mi SW 21.9 mph 25.3 mph N/A   Clear
5:15 PM 87.8 °F - 46.4 °F 24% 29.89 in 10.0 mi SW 17.3 mph 23.0 mph N/A   Clear
5:35 PM 86.0 °F - 48.2 °F 27% 29.89 in 10.0 mi SSW 18.4 mph 23.0 mph N/A   Clear
5:55 PM 86.0 °F - 48.2 °F 27% 29.89 in 10.0 mi SSW 18.4 mph - N/A   Clear
6:35 PM 86.0 °F - 50.0 °F 29% 29.88 in 10.0 mi SSW 16.1 mph 21.9 mph N/A   Clear
7:15 PM 84.2 °F - 51.8 °F 33% 29.87 in 10.0 mi SSW 13.8 mph 20.7 mph N/A   Clear
7:35 PM 82.4 °F - 53.6 °F 37% 29.87 in 10.0 mi SSW 17.3 mph - N/A   Clear
7:55 PM 80.6 °F - 53.6 °F 39% 29.87 in 10.0 mi SSW 15.0 mph - N/A   Clear
8:15 PM 77.0 °F - 53.6 °F 44% 29.87 in 10.0 mi SSW 12.7 mph - N/A   Clear
8:35 PM 77.0 °F - 53.6 °F 44% 29.87 in 10.0 mi SSW 11.5 mph - N/A   Clear
8:55 PM 75.2 °F - 53.6 °F 47% 29.88 in 10.0 mi SSW 11.5 mph - N/A   Clear
9:15 PM 73.4 °F - 53.6 °F 50% 29.88 in 10.0 mi SSW 10.4 mph - N/A   Clear
9:35 PM 73.4 °F - 53.6 °F 50% 29.88 in 10.0 mi SSW 9.2 mph - N/A   Clear
9:55 PM 71.6 °F - 53.6 °F 53% 29.88 in 10.0 mi SSW 8.1 mph - N/A   Clear
10:15 PM 69.8 °F - 53.6 °F 56% 29.89 in 10.0 mi SSW 8.1 mph - N/A   Clear
10:35 PM 68.0 °F - 53.6 °F 60% 29.89 in 10.0 mi SSW 9.2 mph - N/A   Clear
10:55 PM 68.0 °F - 53.6 °F 60% 29.89 in 10.0 mi SSW 8.1 mph - N/A   Clear
11:15 PM 68.0 °F - 55.4 °F 64% 29.88 in 10.0 mi SSW 10.4 mph - N/A   Clear
11:35 PM 66.2 °F - 55.4 °F 68% 29.88 in 10.0 mi SSW 10.4 mph - N/A   Clear
11:55 PM 66.2 °F - 55.4 °F 68% 29.88 in 10.0 mi SSW 10.4 mph - N/A   Clear